Regional Weather Roundup
Issued by NWS

Home | Current Version | Previous Version | Text Only | Print | Product List | Glossary Off
Versions: 1 2 3 4 5 6 7 8 9 10 11 12 13 14 15 16 17 18 19 20 21 22 23 24 25 26 27 28 29 30 31 32 33 34 35 36 37 38 39 40 41

000
ASUS45 KSLC 210510
RWRUT

UTAH REGIONAL WEATHER ROUNDUP
NATIONAL WEATHER SERVICE SALT LAKE CITY UT
1100 PM MDT MON OCT 20 2014

UTZ001>011-023>025-210600-

NORTHERN UTAH

CITY           SKY/WX    TMP DP  RH WIND       PRES   REMARKS
BRIGHAM CITY   CLEAR     54  41  62 W3        29.89S
HILL AFB       CLEAR     62  36  37 SE9       29.92F
LOGAN          CLEAR     50  39  66 CALM      29.90F
OGDEN          CLEAR     60  36  40 S12       29.89F
PROVO AIRPORT  MOCLDY    63  41  45 S16       29.95S
SALT LAKE CITY PTCLDY    63  40  42 SE13      29.90F
VERNAL         MOCLDY    51  38  60 NW6       30.06R
WENDOVER       PTCLDY    54  37  54 CALM      29.86S
HEBER CITY     PTCLDY    50  37  62 CALM      30.02F
WEST JORDAN    CLEAR     63  46  55 S14       29.94S

$$

UTZ012>022-026-027-210600-

SOUTHERN/CENTRAL UTAH

CITY           SKY/WX    TMP DP  RH WIND       PRES   REMARKS
BLANDING       PTCLDY    56  39  52 NE5       30.19F
BRYCE CANYON   CLEAR     34  30  85 W5        30.19S WCI  30
CEDAR CITY     CLEAR     58  37  45 S3        30.03R
DELTA          PTCLDY    63  38  39 S10       29.96R
HANKSVILLE       N/A     55  36  47 CALM      30.03S
MILFORD        CLEAR     57  37  47 SW7       29.99R
MOAB/CYNLANDS  CLEAR     55  37  50 SW3       30.01S
PRICE          CLEAR     51  35  54 NE9       30.09S
ST GEORGE      PTCLDY    66  37  34 SE5       29.92R
KANAB            N/A     54  37  54 NE3       30.08R

$$

REGIONAL REPORTS     COLORADO/ARIZONA

CITY           SKY/WX    TMP DP  RH WIND       PRES   REMARKS
CRAIG, CO      CLEAR     39  34  82 CALM      30.13S
GRAND JUNCTION PTCLDY    56  37  49 E9        30.05S
RIFLE          MOCLDY    49  38  65 CALM      30.10F
MONTROSE       MOCLDY    54  39  57 SE9       30.14S
CORTEZ         CLEAR     50  40  68 N6        30.14S
PAGE, AZ       NOT AVBL
GRAND CANYON   PTCLDY    41  32  70 CALM      30.16S
KINGMAN        CLEAR     61  45  55 S9        29.97R
FLAGSTAFF      CLEAR     42  37  82 CALM      30.19R

$$

REGIONAL REPORTS    NEVADA/IDAHO/WYOMING

CITY           SKY/WX    TMP DP  RH WIND       PRES   REMARKS
LAS VEGAS, NV  PTCLDY    78  40  25 S10       29.82R
ELY            MOCLDY    54  33  45 S10       30.00R
ELKO           PTCLDY    65  28  24 S16G22    29.82S
POCATELLO, ID  LGT RAIN  67  34  29 S14       29.85F
BURLEY         MOCLDY    66  36  32 S13       29.78F
EVANSTON, WY   CLEAR     50  33  52 S9        30.08F
ROCK SPRINGS   CLEAR     51  32  48 SE9       30.08F
KEMMERER       MOCLDY    45  32  61 N3        30.10S

$$



USA.gov is the U.S. government's official web portal to all federal, state and local government web resources and services.